Biggs, California, United States (95917)
Lat: 39.41N, Lon: 121.71W
Wx Zone: CAZ016
Local Info
Past Weather Observations for Monday, April 13, 2015

NOTE: This archive is for the closest National Weather Service station to Biggs. Information may differ from the station used for current weather conditions.

Click here for Long-term Archive

Time Weather Temperature Dewpoint Humidity Pressure Winds Precip Visibility
23:53
Overcast
57°F / 14°C 45°F / 7°C 63% 30.09 in
(1019 mb)
N 5.8 mph
(N 9 kph)
- 10SM
22:53
Mostly Cloudy
57°F / 14°C 43°F / 6°C 59% 30.06 in
(1018 mb)
SSE 12.7 mph
(SSE 20 kph)
- 10SM
21:53
Clear
59°F / 15°C 41°F / 5°C 51% 30.04 in
(1017 mb)
SSE 18.4 mph
(SSE 30 kph)
- 10SM
20:53
Clear
61°F / 16°C 43°F / 6°C 52% 30.01 in
(1016 mb)
SSE 13.8 mph
(SSE 22 kph)
- 10SM
19:53
Clear
64°F / 18°C 41°F / 5°C 43% 29.98 in
(1015 mb)
SSE 18.4 mph
(SSE 30 kph)
- 10SM
18:53
Clear
70°F / 21°C 43°F / 6°C 38% 29.95 in
(1014 mb)
SSE 19.6 mph
(SSE 32 kph)
- 10SM
17:53
Clear
73°F / 23°C 45°F / 7°C 36% 29.95 in
(1014 mb)
S 18.4 mph
(S 30 kph)
- 10SM
16:53
Clear
79°F / 26°C 39°F / 4°C 24% 29.92 in
(1013 mb)
SSE 19.6 mph
(SSE 32 kph)
- 10SM
15:53
Clear
81°F / 27°C 37°F / 3°C 21% 29.95 in
(1014 mb)
S 18.4 mph
(S 30 kph)
- 10SM
14:53
Clear
81°F / 27°C 37°F / 3°C 21% 29.95 in
(1014 mb)
SSE 16.1 mph
(SSE 26 kph)
- 10SM
13:53
Clear
81°F / 27°C 43°F / 6°C 26% 29.98 in
(1015 mb)
SSE 20.7 mph
(SSE 33 kph)
- 10SM
12:53
Clear
81°F / 27°C 45°F / 7°C 28% 30.01 in
(1016 mb)
S 15 mph
(S 24 kph)
- 10SM
11:53
Clear
79°F / 26°C 46°F / 8°C 32% 30.01 in
(1016 mb)
S 18.4 mph
(S 30 kph)
- 10SM
10:53
Clear
75°F / 24°C 46°F / 8°C 36% 30.04 in
(1017 mb)
S 17.3 mph
(S 28 kph)
- 10SM
09:53
Clear
73°F / 23°C 43°F / 6°C 33% 30.04 in
(1017 mb)
SSE 15 mph
(SSE 24 kph)
- 10SM
08:53
Clear
72°F / 22°C 43°F / 6°C 36% 30.01 in
(1016 mb)
SSE 8.1 mph
(SSE 13 kph)
- 10SM
07:53
Clear
63°F / 17°C 45°F / 7°C 52% 30.01 in
(1016 mb)
E 4.6 mph
(E 7 kph)
- 10SM
06:53
Clear
55°F / 13°C 43°F / 6°C 63% 30.01 in
(1016 mb)
Calm - 10SM
05:53
Clear
52°F / 11°C 43°F / 6°C 72% 30.01 in
(1016 mb)
WNW 4.6 mph
(WNW 7 kph)
- 10SM
04:53
Clear
50°F / 10°C 43°F / 6°C 76% 29.98 in
(1015 mb)
Calm - 10SM
03:53
Clear
55°F / 13°C 39°F / 4°C 55% 29.98 in
(1015 mb)
S 4.6 mph
(S 7 kph)
- 10SM
02:53
Clear
55°F / 13°C 41°F / 5°C 59% 29.98 in
(1015 mb)
S 5.8 mph
(S 9 kph)
- 10SM
01:53
Clear
61°F / 16°C 41°F / 5°C 48% 29.98 in
(1015 mb)
E 9.2 mph
(E 15 kph)
- 10SM
00:53
Clear
63°F / 17°C 41°F / 5°C 45% 29.98 in
(1015 mb)
E 9.2 mph
(E 15 kph)
- 10SM
Time Weather Temperature Dewpoint Humidity Pressure Winds Precip Visibility


Weather for websites

WeatherForYou.com, LLC is not responsible for any damages or problems caused by this service. Current weather conditions are obtained from the closest station including government and personal stations which may have varying degrees of accuracy. Weather forecasts are derived from the NOAA NDFD. Like all things, this site belongs to Jesus Christ... He just trusts me to maintain it. If you have any questions or comments email webmaster@weatherforyou.com

Copyright © 2015, WeatherForYou.com LLC. All rights reserved.